Tracking 28790 objects as of 18-Apr-2024
HD Live streaming from Space Station
objects crossing your sky now

BREEZE-M DEB

Track BREEZE-M DEB now!
10-day predictions


NORAD ID: 32041
Int'l Code: 2006-006U
Perigee: 359.4 km
Apogee: 9,819.8 km
Inclination: 51.7 °
Period: 203.5 minutes
Semi major axis: 11460 km
RCS: 0.0201 m2 (small)
Launch date: February 28, 2006
Source: Commonwealth of Independent States (former USSR) (CIS)
Launch site: TYURATAM MISSILE AND SPACE COMPLEX (TTMTR)

Note: This is SATELLITE DEBRIS
Your satellite tracking list
Your tracking list is empty




NASA's NSSDC Master Catalog

Two Line Element Set (TLE):
1 32041U 06006U   24109.49566275  .00057362  00000-0  12699-1 0  9993
2 32041  51.6665 180.4764 4127330 157.7289 340.1237  7.07604341379405
Source of the keplerian elements: AFSPC